Location: Little Baddow
(51.7333°N, 0.5667°E)
Time: 03:17:54
(UTC+00:00)

CENTAUR R/B - Pass Details

Date: 08 November 2025
Orbit: 633 x 1548 km, 63.4° (Epoch: 15 December)

Event Time Altitude Azimuth Distance (km) Brightness Sun altitude
Exits shadow 02:05:44 29° 26° (NNE) 2,035 4.4 -44.8°
Drops below altitude 10° 02:10:16 10° 51° (NE) 3,324 5.9 -44.2°
Sets 02:13:41 0° 59° (ENE) 4,427 6.7 -43.8°
